Regional Weather Roundup
Issued by NWS State College, PA

Home | Current Version | Previous Version | Text Only | Print | Product List | Glossary Off
Versions: 1 2 3 4 5 6 7 8 9 10 11 12 13 14 15 16 17 18 19 20 21 22 23 24 25 26 27 28 29 30 31 32 33 34 35 36 37 38 39 40 41 42 43 44 45 46 47 48 49 50

101
ASUS41 KCTP 301910
RWRCTP

REGIONAL WEATHER ROUNDUP
NATIONAL WEATHER SERVICE STATE COLLEGE PA
300 PM EDT THU MAR 30 2017

Note: "fair" indicates few or no clouds below 12,000 feet with no
significant weather and/or obstructions to visibility.

* = STATION THAT DOES NOT REPORT PRECIPITATION /E.G. RAIN...SNOW...ETC/
    THUNDER OR FOG.

PAZ002>004-007>009-013>016-020>023-029>032-302000-
WESTERN PENNSYLVANIA

CITY           SKY/WX    TMP DP  RH WIND       PRES   REMARKS
ERIE           LGT RAIN  40  36  86 E12       29.97F
MEADVILLE      RAIN      38  33  82 NE8       29.96R
FRANKLIN*      CLOUDY    39  30  70 E13G18    29.93F
NEW CASTLE     CLOUDY    49  37  63 E12G21    29.89F
BEAVER COUNTY  LGT RAIN  46  41  81 E9G16     29.87F
BUTLER*        PTSUNNY   46  36  66 E16G22    29.90F THUNDER
PITTSBURGH INT CLOUDY    52  40  63 E8G17     29.89F
PITTSBURGH     LGT RAIN  51  41  68 E10       29.87F
INDIANA*       CLOUDY    48  34  57 SE16      29.99R
LATROBE        PTSUNNY   48  39  71 SE12G23   29.92F
WASHINGTON CO* PTSUNNY   54  45  71 E8        29.87F
$$

PAZ004>006-010>012-017>019-024>028-033>037-041-042-045-046-049>053-302000-
CENTRAL PENNSYLVANIA

CITY           SKY/WX    TMP DP  RH WIND       PRES   REMARKS
BRADFORD       CLOUDY    32  30  92 SE14      29.98F
DUBOIS         CLOUDY    39  32  76 E15G25    29.97F
CLEARFIELD     CLOUDY    41  30  65 E9        30.04F
JOHNSTOWN      LGT RAIN  41  34  76 SE13G20   29.98R
ALTOONA        LGT RAIN  45  34  65 SE12      30.03F
STATE COLLEGE  CLOUDY    41  28  60 E9        30.09F
WILLIAMSPORT   CLOUDY    40  30  67 NE7       30.16F
SELINSGROVE    LGT RAIN  46  29  51 NE7       30.14F
FT INDIANTOWN  CLOUDY    46  26  46 SE6       30.15F
CAPITAL CITY   CLOUDY    48  26  42 E6        30.15F
HARRISBURG     CLOUDY    47  30  51 SE6       30.15F
YORK           CLOUDY    46  29  51 SE8       30.15F
$$

PAZ038>040-043-044-047-048-054-055-060>062-067>071-302000-
EASTERN PENNSYLVANIA

CITY           SKY/WX    TMP DP  RH WIND       PRES   REMARKS
SCRANTON       CLOUDY    46  24  42 CALM      30.14F
MOUNT POCONO   CLOUDY    43  24  47 VRB3      30.12F
ALLENTOWN      CLOUDY    47  24  40 CALM      30.19F
QUAKERTOWN*    PTCLDY    45  25  45 N3        30.19S
READING        CLOUDY    49  28  44 NE8       30.16F
LANCASTER      CLOUDY    48  29  47 SE7       30.16F
COATESVILLE    CLOUDY    46  25  42 S5        30.17F
POTTSTOWN      CLOUDY    47  25  42 CALM      30.20F
BLUE BELL        N/A    N/A N/A N/A MISG        N/A
DOYLESTOWN     CLOUDY    45  23  42 CALM      30.17F
WILLOW GROVE   NOT AVBL
NORTH PHILA    CLOUDY    50  23  34 E3        30.20F
PHILADELPHIA   CLOUDY    50  24  36 W6        30.19F
$$




USA.gov is the U.S. government's official web portal to all federal, state and local government web resources and services.